Location: *
(43.4667°N, 11.6833°E)
Time: 08:48:05
(UTC+00:00)

EO 1 Del DPAF - Pass Details

Date: 19 July 2019
Orbit: 517 x 521 km, 98.1° (Epoch: 21 August)

Event Time Altitude Azimuth Distance (km) Brightness Sun altitude
Rises 19:56:07 0° 21° (NNE) 2,660 7.1 -10.6°
Reaches altitude 10° 19:58:21 10° 29° (NNE) 1,766 6.1 -10.9°
Maximum altitude 20:01:55 38° 99° (E) 807 3.8 -11.4°
Enters shadow 20:04:48 14° 164° (SSE) 1,502 5.0 -11.8°
